Temperature
18 18 18 18 18 18 18 18 18 18 18 18 18 18 18 18 18 18 18 18 18 18 18 18 18 18 18 18 18 18 18 17 17 18 18 18 18 18 17 17 16 16 16
18 18 18 18 18 18 18 17 17 17 18 18 18 18 18 18 18 18 18 18 18 18 18 18 19 18 18 18 18 18 18 18 17 17 18 18 18 18 17 17 17 16 16
18 18 18 18 18 18 18 18 18 17 17 18 18 18 18 18 18 18 18 18 19 19 19 19 19 19 19 19 18 18 18 18 17 17 17 17 18 18 17 17 17 17 16
18 18 18 18 18 18 18 18 18 18 18 18 18 18 18 18 18 18 18 18 19 19 19 19 19 18 18 18 18 18 18 18 18 17 17 17 18 18 17 17 17 17 17
17 17 17 17 17 17 17 17 18 18 18 18 18 18 18 18 18 18 18 18 18 18 18 19 19 19 18 18 18 18 18 18 18 18 17 17 17 18 18 17 17 17 17
17 17 17 17 17 17 17 17 17 17 17 17 17 17 17 17 17 17 18 18 18 18 18 18 18 19 19 18 18 18 18 18 18 17 17 17 17 17 18 18 18 17 17
17 17 17 17 17 17 17 17 17 17 17 17 17 17 17 17 18 18 18 18 18 18 18 18 19 19 19 18 18 17 17 17 18 17 17 17 17 17 17 17 17 17 17
16 16 16 16 16 17 17 17 17 16 17 17 17 17 16 17 17 18 18 18 18 18 18 18 18 18 18 18 18 17 17 17 17 17 17 17 17 17 17 17 17 17 17
16 16 16 16 16 16 16 17 17 16 16 16 16 16 16 16 17 17 17 17 18 18 18 18 17 17 18 17 17 17 17 17 17 17 17 17 17 17 17 17 17 17 17
15 15 15 16 16 16 16 16 16 16 16 15 16 16 16 15 15 15 16 16 16 17 17 17 17 17 17 17 17 16 16 17 17 16 16 17 17 17 17 17 16 17 17
15 15 15 15 15 15 15 14 14 15 15 15 15 15 15 15 14 14 14 15 15 16 16 16 16 16 16 16 16 16 16 16 16 16 16 16 17 17 16 16 16 16 16
15 14 14 13 13 13 13 13 13 14 14 15 15 15 15 14 14 14 14 14 15 15 15 15 15 15 15 15 15 15 15 15 16 16 16 16 16 16 16 16 16 16 16
14 14 13 13 13 13 13 13 13 14 14 14 14 14 15 15 14 14 14 14 14 14 14 15 15 15 15 14 14 15 15 15 15 16 16 16 16 16 16 16 16 16 16
13 13 13 13 13 13 13 13 14 14 14 14 14 14 14 14 14 13 13 14 14 14 14 14 14 14 14 14 14 14 14 15 15 15 15 16 16 16 16 16 16 16 16
13 13 13 13 13 13 13 14 14 14 14 14 14 14 14 13 13 13 13 13 13 13 13 13 13 13 14 14 14 14 14 15 15 15 15 15 15 15 15 15 15 15 15
13 13 13 13 13 13 13 14 14 14 14 14 13 13 13 13 13 13 13 13 13 13 13 13 13 13 13 13 13 13 14 14 15 15 15 15 15 14 14 14 14 14 14
13 13 13 12 12 12 13 13 13 13 13 13 13 13 13 13 13 13 13 13 13 13 14 13 12 12 12 13 13 13 13 14 14 14 15 14 14 13 13 13 13 13 13
13 13 12 12 12 12 12 12 12 12 12 12 12 12 12 12 13 13 13 13 13 13 14 13 13 13 13 13 13 13 13 13 13 13 13 12 12 12 12 13 13 13 13
13 13 12 12 11 11 11 11 12 12 12 12 12 12 12 12 12 12 13 12 13 13 13 13 13 13 13 12 12 12 12 12 12 12 12 12 12 12 12 12 13 13 13
13 13 12 12 11 11 11 11 11 11 12 12 12 12 12 12 12 12 12 12 13 12 13 13 13 12 12 12 12 12 12 12 12 12 12 12 12 12 12 12 12 12 12
12 12 12 12 11 11 11 11 11 11 11 11 11 11 11 12 12 12 12 13 13 13 13 13 12 12 12 12 12 11 11 11 11 11 12 12 12 12 11 11 11 11 12
12 12 12 12 11 11 11 11 11 11 11 11 11 11 11 12 12 12 12 12 12 13 13 13 12 12 12 11 11 11 11 11 11 11 11 11 11 11 11 11 11 11 11
12 12 12 11 11 11 11 11 11 11 11 11 11 11 11 11 12 12 12 12 12 12 12 12 12 11 11 11 11 11 11 11 10 10 10 11 11 10 10 10 10 10 10
12 12 12 11 11 11 11 11 11 11 11 11 11 11 11 11 11 11 12 12 11 11 11 11 11 11 10 10 10 10 10 10 10 10 10 10 10 10 9 9 9 9 9
12 12 12 11 11 11 11 11 11 11 11 11 11 11 11 11 11 11 11 11 11 11 11 11 11 10 10 10 10 10 10 10 9 9 9 9 9 9 9 9 9 9 9
11 11 11 11 11 12 12 11 11 11 11 11 11 11 11 11 11 11 11 11 11 11 10 10 10 10 10 9 9 9 9 9 9 9 9 9 9 9 9 8 8 8 8
Wind_Speed
9 8 9 12 13 15 13 10 11 11 11 13 14 14 13 14 15 15 15 20 21 22 22 22 22 23 23 23 25 25 24 26 27 27 27 27 28 27 26 26 26 25 24
10 9 10 8 10 14 15 12 10 12 11 10 12 12 13 13 14 16 16 17 20 22 23 23 23 23 22 23 25 25 24 25 26 27 27 28 28 28 27 27 27 27 26
13 9 9 9 10 14 14 12 12 10 9 9 11 12 10 11 13 15 16 16 16 18 21 22 24 24 23 24 25 27 27 25 25 27 28 28 28 28 27 27 27 26 27
13 9 8 10 11 12 9 10 10 9 9 10 10 9 9 9 12 13 14 14 14 15 17 20 22 24 25 26 26 27 28 28 27 27 28 29 28 28 27 26 26 25 26
10 7 8 8 10 8 8 9 9 9 10 11 10 9 9 9 10 10 11 12 14 15 16 17 20 22 24 25 27 28 29 29 28 28 28 29 30 28 27 27 26 26 27
7 5 6 8 7 7 7 8 10 9 8 8 9 8 8 9 8 9 11 11 11 15 17 17 17 17 19 22 24 26 28 29 28 29 30 30 30 29 28 28 27 26 27
6 4 5 6 6 6 8 8 8 9 8 5 4 6 6 8 10 10 10 10 12 13 15 15 15 16 16 19 22 25 28 29 29 28 29 30 30 30 28 27 26 26 27
7 6 7 7 7 7 8 8 8 5 5 6 5 5 4 4 6 7 8 9 10 9 10 11 13 15 16 16 17 22 25 28 28 27 28 29 29 29 29 28 26 27 27
6 6 7 8 8 8 9 9 9 9 8 7 8 6 5 6 3 2 3 5 6 6 7 7 10 12 15 14 14 13 15 16 17 19 21 25 27 27 27 27 26 26 26
8 8 9 10 10 9 10 11 10 10 10 8 7 9 8 5 4 3 2 2 3 5 5 5 6 6 6 6 5 6 8 7 7 7 8 11 16 21 23 26 28 27 26
8 10 10 11 11 10 11 11 11 11 10 10 8 7 9 7 7 6 5 3 2 3 3 4 4 3 2 2 2 3 3 8 9 8 8 6 5 6 13 20 24 26 27
7 8 10 10 10 10 10 10 10 11 10 11 10 8 7 5 6 7 8 6 4 2 0 2 2 2 2 1 2 8 12 12 11 10 9 7 6 6 4 2 8 17 23
6 9 9 9 9 9 10 9 9 9 10 11 10 8 8 7 4 6 7 6 5 2 1 3 3 4 4 4 6 13 14 12 11 10 8 7 8 8 9 8 6 4 3
7 9 10 10 9 9 8 7 6 8 7 9 9 9 7 7 6 6 6 5 4 2 1 2 2 4 4 6 8 11 11 14 13 10 7 7 8 9 10 10 9 9 8
6 8 10 10 10 8 7 5 5 6 6 7 7 7 6 6 7 7 6 6 6 5 3 2 2 4 4 6 8 10 10 14 14 11 8 6 7 9 10 10 10 9 9
4 7 9 10 10 8 7 5 5 5 4 4 3 4 5 5 6 7 7 6 4 4 4 3 3 2 3 6 10 11 11 14 16 14 11 9 10 11 11 11 11 10 10
5 6 8 9 9 9 8 6 4 3 2 2 1 2 3 4 5 5 5 4 3 4 8 4 2 2 3 7 7 9 10 10 13 17 16 15 15 14 13 13 13 13 12
4 4 6 7 8 9 8 7 5 5 5 5 4 3 4 5 6 6 6 5 4 5 9 8 3 4 6 5 7 7 6 9 10 14 15 14 14 13 13 14 14 14 14
4 3 3 4 6 8 8 8 8 8 9 8 8 7 6 7 6 5 6 6 6 7 7 9 6 4 6 5 6 5 6 5 6 9 11 12 12 12 13 13 14 14 14
3 2 1 2 4 6 7 8 8 8 9 9 8 7 6 5 5 6 7 9 10 10 10 10 8 5 5 4 4 4 4 4 5 6 6 8 9 9 10 11 12 13 14
5 3 2 1 3 3 5 6 6 6 7 9 8 7 6 8 8 7 8 10 10 10 9 10 8 6 4 4 4 2 3 2 3 5 3 5 5 5 7 9 11 14 14
6 5 4 1 1 1 4 6 4 4 5 7 7 6 8 11 15 16 15 12 9 9 9 7 6 6 3 3 2 2 2 2 3 4 4 4 4 5 5 8 12 14 14
8 7 6 4 2 2 5 8 7 4 3 4 5 6 7 7 10 11 13 14 13 11 9 8 8 5 4 3 3 3 2 2 2 3 3 4 4 4 5 8 13 14 15
9 8 7 7 5 4 8 11 8 4 5 4 4 6 7 6 6 10 11 11 10 8 6 6 7 4 3 2 2 2 2 2 2 3 4 4 4 3 3 4 11 15 16
9 8 7 8 7 6 12 15 12 6 6 6 5 5 7 7 8 12 13 12 12 10 12 14 13 11 11 9 3 2 3 3 2 3 4 3 3 3 3 2 6 13 15
10 10 9 9 9 8 14 17 15 8 7 6 5 5 7 9 10 11 11 12 12 7 7 9 10 11 10 11 11 6 3 3 2 2 4 4 3 3 3 2 4 7 10
Wind_Direction
238 237 242 244 246 249 248 245 246 244 245 246 245 244 246 246 248 250 255 259 261 263 263 263 265 268 266 255 243 238 236 233 230 229 228 225 224 225 225 225 224 223 223
238 237 240 240 244 247 251 250 246 245 242 239 241 241 244 246 248 249 252 257 259 260 261 262 262 263 258 250 247 245 243 237 233 230 230 229 227 227 227 226 225 224 224
247 247 246 247 247 247 250 253 251 245 244 242 244 244 244 246 246 247 250 255 259 259 258 261 264 261 254 249 248 246 244 241 236 232 231 231 230 229 228 227 225 224 224
250 253 256 258 256 251 246 248 248 245 243 242 243 243 242 246 249 247 247 250 257 263 264 261 261 261 259 257 255 251 245 243 240 236 233 232 232 231 229 227 226 224 224
259 249 254 262 265 260 251 248 244 237 236 237 238 240 240 242 247 250 249 249 251 258 264 264 260 257 260 262 261 259 256 250 242 237 235 234 233 231 228 227 226 225 225
262 254 255 262 267 266 260 250 250 242 236 235 244 246 241 239 240 243 248 249 248 251 256 260 263 261 260 263 264 261 259 255 246 238 237 235 232 230 228 226 225 224 225
300 287 279 276 269 261 257 252 249 246 241 219 218 251 251 241 241 242 242 244 248 251 255 259 264 266 264 260 261 259 254 252 247 240 238 236 232 229 227 225 222 222 224
317 308 294 288 280 271 264 257 247 246 237 200 203 226 262 274 242 240 245 247 251 254 258 262 263 262 260 257 255 253 252 249 246 245 242 239 235 229 225 224 220 220 223
311 300 294 290 285 276 268 256 243 240 244 223 205 203 212 231 260 269 248 250 252 251 259 268 272 268 260 254 253 251 255 252 253 254 252 247 241 234 226 223 219 219 222
314 311 303 297 291 284 275 266 251 238 235 234 217 216 219 195 202 254 269 250 243 250 264 278 277 273 253 233 240 260 267 271 278 286 291 277 255 238 228 225 222 220 221
308 307 305 302 295 288 280 272 261 247 235 232 222 211 219 217 211 221 248 248 257 255 269 292 286 283 275 204 207 226 94 75 65 50 33 15 347 264 239 235 230 225 224
303 301 308 307 300 292 286 280 271 259 247 238 229 213 202 200 203 208 225 233 243 251 299 15 12 12 12 9 167 111 87 76 67 57 50 44 38 39 31 312 252 238 232
311 310 315 310 305 297 290 283 276 267 253 242 233 222 214 212 186 190 209 220 217 206 100 47 32 39 39 28 65 81 74 69 63 59 58 56 55 57 56 49 35 10 269
298 303 310 307 302 301 296 286 278 270 256 246 239 226 215 213 207 199 195 190 189 172 138 115 38 37 54 58 67 74 70 64 59 58 62 67 70 70 68 64 57 48 44
292 305 313 314 311 307 302 296 282 276 260 248 239 223 213 211 210 210 203 191 182 178 162 140 96 31 51 76 82 79 71 61 53 51 61 84 92 84 76 67 57 47 38
289 313 323 326 325 325 323 314 297 286 267 255 236 220 215 213 210 202 193 181 169 165 140 104 88 52 68 95 91 84 75 62 48 45 61 90 102 91 76 63 53 43 34
296 317 325 328 332 341 346 347 341 339 356 360 323 204 184 166 157 145 138 134 146 144 126 108 76 62 88 94 86 78 68 61 51 49 62 81 92 90 82 71 61 54 46
287 309 322 329 335 348 359 7 16 31 41 37 32 75 100 108 104 108 110 111 122 122 128 124 95 70 74 77 84 75 62 59 55 54 62 73 82 84 80 71 63 55 47
278 306 324 332 341 357 19 31 43 55 57 52 45 52 64 78 76 88 106 115 111 109 108 112 99 70 73 67 77 69 58 47 49 48 54 58 65 74 73 67 59 49 40
244 270 298 328 346 7 37 49 54 61 67 61 52 54 64 82 98 111 119 122 119 112 108 107 101 83 72 62 74 74 67 41 38 31 40 46 49 64 64 58 47 35 25
216 209 209 321 354 18 59 74 70 77 80 75 62 61 81 107 115 118 124 122 121 117 112 108 103 91 74 66 69 63 80 66 54 26 18 33 31 43 44 40 33 22 14
201 196 194 210 332 43 105 131 135 119 103 98 91 78 82 88 89 87 88 89 103 118 117 110 106 103 96 90 89 84 84 75 46 9 9 18 25 37 35 40 33 32 26
195 199 197 197 225 230 169 169 167 134 111 114 120 110 97 84 90 95 83 74 68 80 113 126 122 129 133 145 131 115 106 95 78 359 3 16 11 22 23 32 33 37 34
199 201 198 197 205 222 189 174 157 117 101 88 101 118 114 95 97 107 95 81 69 60 83 99 113 113 113 148 154 131 125 101 45 32 22 19 354 357 353 9 26 32 32
207 199 193 190 191 195 178 164 147 128 107 82 68 85 106 97 101 109 105 99 88 78 76 81 80 75 67 57 69 104 97 101 75 24 19 12 349 335 326 338 3 14 17
217 202 193 189 182 179 175 163 148 137 122 108 83 74 90 104 104 106 111 113 108 99 97 86 69 55 54 48 45 54 83 106 93 47 13 359 353 348 348 354 352 4 8
Height
1536 1538 1538 1538 1538 1538 1538 1538 1538 1538 1537 1537 1537 1536 1535 1535 1535 1535 1534 1535 1534 1535 1535 1535 1536 1536 1537 1538 1539 1539 1540 1541 1541 1542 1543 1543 1545 1546 1548 1549 1551 1553 1555
1531 1532 1533 1533 1533 1533 1533 1532 1531 1532 1531 1531 1531 1530 1530 1531 1531 1531 1530 1530 1530 1530 1530 1531 1532 1532 1532 1533 1535 1535 1536 1536 1537 1537 1538 1539 1540 1541 1543 1545 1547 1549 1551
1527 1527 1527 1527 1527 1527 1526 1524 1524 1525 1525 1525 1525 1525 1525 1525 1525 1526 1526 1526 1525 1526 1526 1526 1527 1527 1528 1528 1529 1531 1532 1532 1532 1533 1533 1534 1535 1536 1538 1539 1541 1543 1545
1522 1522 1521 1520 1521 1520 1519 1518 1516 1516 1515 1516 1517 1518 1519 1520 1520 1520 1520 1521 1521 1521 1521 1521 1522 1522 1522 1523 1523 1524 1526 1527 1527 1528 1528 1529 1530 1531 1532 1534 1536 1538 1540
1515 1514 1513 1513 1513 1512 1510 1510 1509 1509 1509 1510 1511 1512 1512 1513 1513 1514 1514 1514 1515 1515 1515 1515 1515 1516 1516 1517 1517 1518 1519 1520 1521 1522 1522 1523 1524 1525 1527 1528 1530 1532 1534
1510 1509 1508 1507 1506 1504 1503 1503 1502 1502 1502 1503 1504 1504 1505 1505 1506 1506 1507 1508 1509 1509 1509 1509 1509 1508 1508 1509 1510 1511 1511 1512 1513 1515 1515 1517 1518 1519 1521 1522 1524 1526 1528
1505 1503 1502 1500 1499 1497 1496 1496 1495 1495 1494 1495 1496 1497 1497 1498 1498 1499 1500 1500 1501 1502 1502 1501 1501 1500 1499 1500 1501 1503 1504 1504 1506 1507 1508 1510 1512 1513 1514 1516 1518 1520 1522
1500 1497 1495 1494 1492 1490 1489 1488 1487 1487 1487 1488 1489 1490 1489 1490 1490 1492 1493 1493 1494 1494 1494 1493 1493 1492 1491 1491 1492 1494 1496 1497 1498 1500 1501 1503 1505 1506 1508 1510 1512 1514 1516
1494 1491 1489 1486 1484 1481 1479 1479 1478 1478 1478 1479 1481 1483 1482 1481 1483 1483 1484 1486 1487 1487 1487 1487 1486 1485 1484 1484 1485 1487 1489 1491 1492 1493 1494 1496 1497 1499 1501 1503 1505 1507 1510
1489 1485 1482 1478 1475 1471 1469 1468 1468 1469 1470 1471 1472 1473 1475 1476 1478 1477 1478 1480 1482 1482 1482 1481 1481 1480 1479 1479 1480 1481 1483 1485 1486 1487 1488 1489 1490 1492 1494 1496 1498 1500 1503
1483 1479 1474 1470 1466 1462 1459 1458 1458 1459 1461 1462 1464 1465 1466 1467 1469 1471 1471 1473 1476 1477 1476 1476 1475 1474 1474 1474 1475 1476 1478 1479 1480 1481 1482 1483 1484 1485 1487 1488 1491 1493 1496
1476 1472 1468 1464 1461 1457 1453 1451 1451 1452 1453 1454 1455 1456 1458 1460 1461 1463 1465 1467 1470 1471 1471 1470 1470 1470 1470 1470 1471 1473 1474 1475 1476 1476 1477 1478 1479 1479 1481 1482 1484 1486 1489
1471 1467 1464 1460 1457 1453 1450 1448 1446 1446 1446 1446 1448 1449 1450 1452 1454 1456 1459 1461 1464 1466 1467 1467 1467 1467 1468 1469 1470 1470 1471 1473 1473 1473 1473 1474 1474 1475 1476 1477 1479 1480 1482
1468 1464 1461 1457 1453 1450 1447 1444 1442 1441 1440 1440 1441 1442 1443 1445 1447 1450 1453 1456 1459 1461 1463 1464 1465 1466 1466 1467 1469 1470 1470 1471 1471 1471 1471 1471 1471 1471 1472 1473 1474 1475 1476
1465 1461 1458 1454 1450 1447 1444 1441 1439 1437 1436 1435 1435 1436 1437 1439 1441 1444 1447 1451 1455 1456 1459 1461 1462 1464 1465 1466 1468 1469 1469 1469 1469 1469 1468 1468 1468 1469 1469 1470 1471 1472 1473
1462 1459 1455 1452 1448 1445 1441 1439 1436 1434 1432 1430 1430 1430 1432 1434 1436 1438 1441 1445 1448 1452 1454 1457 1459 1462 1464 1465 1467 1468 1468 1468 1467 1466 1465 1465 1466 1467 1467 1468 1469 1469 1470
1459 1456 1452 1450 1447 1443 1439 1436 1433 1431 1429 1427 1426 1427 1428 1430 1432 1434 1438 1442 1446 1449 1451 1456 1459 1462 1465 1466 1467 1468 1468 1467 1465 1464 1463 1463 1464 1465 1466 1467 1467 1468 1468
1457 1453 1451 1448 1446 1441 1437 1434 1431 1429 1428 1426 1426 1425 1426 1428 1431 1434 1437 1441 1445 1448 1451 1454 1459 1463 1465 1466 1467 1468 1468 1467 1466 1465 1464 1463 1464 1464 1465 1465 1465 1466 1466
1455 1452 1449 1447 1445 1442 1437 1434 1431 1430 1428 1427 1427 1427 1427 1429 1431 1434 1438 1442 1445 1449 1452 1455 1459 1462 1464 1466 1468 1468 1468 1468 1467 1467 1466 1466 1465 1465 1465 1464 1464 1464 1464
1452 1450 1448 1447 1445 1443 1440 1436 1434 1432 1430 1429 1430 1430 1431 1432 1434 1437 1440 1444 1447 1450 1454 1457 1460 1462 1464 1466 1467 1468 1469 1469 1469 1468 1468 1467 1467 1467 1465 1464 1464 1463 1463
1449 1448 1447 1446 1445 1444 1441 1439 1437 1435 1433 1433 1434 1435 1436 1437 1438 1440 1443 1446 1449 1452 1455 1457 1460 1462 1465 1466 1468 1469 1470 1470 1470 1470 1469 1469 1468 1467 1466 1464 1463 1462 1461
1445 1445 1444 1444 1444 1443 1442 1441 1440 1439 1438 1438 1439 1440 1441 1442 1443 1444 1447 1450 1452 1454 1456 1458 1460 1463 1466 1467 1468 1469 1470 1470 1470 1470 1469 1469 1468 1466 1465 1463 1462 1461 1460
1440 1440 1441 1442 1442 1443 1443 1443 1443 1442 1442 1442 1443 1444 1446 1447 1447 1448 1450 1452 1454 1456 1458 1460 1462 1464 1466 1467 1468 1469 1469 1469 1468 1468 1468 1467 1467 1465 1464 1463 1462 1460 1458
1434 1436 1437 1438 1439 1441 1442 1443 1444 1444 1444 1445 1446 1447 1448 1449 1450 1450 1451 1453 1455 1457 1459 1460 1462 1465 1466 1467 1468 1468 1468 1467 1467 1467 1467 1467 1467 1466 1465 1464 1462 1460 1458
1428 1430 1432 1434 1435 1438 1440 1442 1443 1445 1446 1447 1448 1449 1449 1449 1450 1450 1451 1452 1455 1457 1459 1461 1463 1464 1466 1466 1467 1467 1467 1467 1467 1468 1468 1468 1467 1465 1465 1464 1462 1460 1457
1420 1424 1427 1429 1431 1434 1437 1440 1442 1444 1446 1447 1448 1449 1449 1450 1450 1451 1452 1453 1455 1457 1459 1461 1463 1464 1465 1466 1466 1466 1466 1467 1467 1468 1468 1468 1467 1466 1465 1463 1461 1459 1456